Location: ?kun?ru
(16.3916°N, 80.8194°E)
Time: 01:34:47
(UTC+00:00)

CSL-04 Debris - Pass Details

Date: 19 May 2025
Orbit: 819 x 841 km, 98.7° (Epoch: 24 June)

Event Time Altitude Azimuth Distance (km) Brightness Sun altitude
Exits shadow 14:36:49 45° 121° (ESE) 1,129 4.4 -21.5°
Maximum altitude 14:38:04 55° 76° (ENE) 997 4.3 -21.8°
Drops below altitude 10° 14:43:22 10° 359° (N) 2,454 7.0 -22.9°
Sets 14:45:46 0° 355° (N) 3,390 7.8 -23.4°
